• In Deutschland
  • Länderverzeichnis
  • Für 7 Tage
  • Wassertemperatur
  • Satellitenkarten
  • Wetterkarte
  • Widgets
  • user-avatar
    Anmelden

    Stündliche Wetter Hangou

    Heute, 19 August, Sonntag

    Zeit Temperatur Niederschläge Wind Luftdruck Luftfeuchtigkeit
    00:00 +26°C° 0,3 mm 1 m/S 756 mmHg 81%
    01:00 +26°C° 0,3 mm 1 m/S 756 mmHg 81%
    02:00 +26°C° 0 mm 1 m/S 756 mmHg 80%
    03:00 +25°C° 0,1 mm 2 m/S 756 mmHg 82%
    04:00 +25°C° 0,1 mm 2 m/S 756 mmHg 84%
    05:00 +25°C° 0,1 mm 2 m/S 755 mmHg 85%
    06:00 +25°C° 0,5 mm 2 m/S 755 mmHg 86%
    07:00 +25°C° 0,5 mm 2 m/S 756 mmHg 86%
    08:00 +26°C° 0 mm 3 m/S 756 mmHg 86%
    09:00 +26°C° 1,1 mm 3 m/S 756 mmHg 86%
    10:00 +26°C° 1,1 mm 3 m/S 755 mmHg 86%
    11:00 +27°C° 1,1 mm 3 m/S 755 mmHg 86%
    12:00 +26°C° 0,8 mm 3 m/S 755 mmHg 86%
    13:00 +26°C° 0,8 mm 3 m/S 755 mmHg 87%
    14:00 +26°C° 0 mm 3 m/S 755 mmHg 85%
    15:00 +26°C° 0,3 mm 3 m/S 755 mmHg 86%
    16:00 +26°C° 0,3 mm 3 m/S 755 mmHg 87%
    17:00 +26°C° 0,3 mm 3 m/S 754 mmHg 88%
    18:00 +26°C° 0,3 mm 3 m/S 754 mmHg 90%
    19:00 +25°C° 0,3 mm 3 m/S 754 mmHg 91%
    20:00 +25°C° 0,3 mm 3 m/S 754 mmHg 93%
    21:00 +25°C° 0,4 mm 3 m/S 754 mmHg 93%
    22:00 +25°C° 0,4 mm 4 m/S 754 mmHg 93%
    23:00 +25°C° 0,4 mm 4 m/S 753 mmHg 94%

    Morgen, 20 August, Montag

    Zeit Temperatur Niederschläge Wind Luftdruck Luftfeuchtigkeit
    00:00 +23°C° 1,1 mm 4 m/S 753 mmHg 94%
    01:00 +23°C° 1,1 mm 5 m/S 752 mmHg 94%
    02:00 +23°C° 1,1 mm 5 m/S 752 mmHg 94%
    03:00 +23°C° 0,4 mm 5 m/S 751 mmHg 93%
    04:00 +23°C° 0,4 mm 5 m/S 751 mmHg 93%
    05:00 +23°C° 0,4 mm 5 m/S 750 mmHg 92%
    06:00 +25°C° 0 mm 5 m/S 750 mmHg 89%
    07:00 +25°C° 0 mm 5 m/S 750 mmHg 85%
    08:00 +26°C° 0 mm 5 m/S 750 mmHg 82%
    09:00 +28°C° 0 mm 5 m/S 750 mmHg 76%
    10:00 +29°C° 0 mm 5 m/S 750 mmHg 71%
    11:00 +32°C° 0 mm 4 m/S 750 mmHg 65%
    12:00 +33°C° 0 mm 4 m/S 750 mmHg 62%
    13:00 +33°C° 0 mm 3 m/S 750 mmHg 59%
    14:00 +34°C° 0 mm 3 m/S 749 mmHg 56%
    15:00 +34°C° 0 mm 2 m/S 749 mmHg 56%
    16:00 +34°C° 0 mm 2 m/S 749 mmHg 57%
    17:00 +33°C° 0 mm 1 m/S 749 mmHg 58%
    18:00 +32°C° 0 mm 1 m/S 749 mmHg 62%
    19:00 +30°C° 0 mm 2 m/S 749 mmHg 66%
    20:00 +29°C° 0 mm 2 m/S 749 mmHg 70%
    21:00 +28°C° 0 mm 2 m/S 749 mmHg 72%
    22:00 +28°C° 0 mm 2 m/S 749 mmHg 74%
    23:00 +27°C° 0 mm 2 m/S 750 mmHg 75%

    übermorgen, 21 August, Dienstag

    Zeit Temperatur Niederschläge Wind Luftdruck Luftfeuchtigkeit
    00:00 +27°C° 0 mm 2 m/S 750 mmHg 77%
    01:00 +26°C° 0 mm 2 m/S 750 mmHg 79%
    02:00 +26°C° 0 mm 2 m/S 750 mmHg 81%
    03:00 +26°C° 0 mm 2 m/S 750 mmHg 82%
    04:00 +25°C° 0 mm 2 m/S 751 mmHg 82%
    05:00 +25°C° 0 mm 2 m/S 751 mmHg 83%
    06:00 +26°C° 0 mm 3 m/S 751 mmHg 77%
    07:00 +27°C° 0 mm 4 m/S 752 mmHg 71%
    08:00 +27°C° 0 mm 5 m/S 752 mmHg 66%
    09:00 +29°C° 0 mm 5 m/S 752 mmHg 61%
    10:00 +30°C° 0 mm 5 m/S 753 mmHg 56%
    11:00 +33°C° 0 mm 5 m/S 753 mmHg 50%
    12:00 +33°C° 0 mm 4 m/S 753 mmHg 48%
    13:00 +34°C° 0 mm 4 m/S 752 mmHg 46%
    14:00 +34°C° 0 mm 3 m/S 752 mmHg 44%
    15:00 +34°C° 0 mm 3 m/S 752 mmHg 47%
    16:00 +33°C° 0 mm 3 m/S 752 mmHg 50%
    17:00 +32°C° 0 mm 2 m/S 752 mmHg 53%
    18:00 +31°C° 0 mm 2 m/S 752 mmHg 55%
    19:00 +29°C° 0 mm 2 m/S 753 mmHg 56%
    20:00 +28°C° 0 mm 2 m/S 753 mmHg 58%
    21:00 +27°C° 0 mm 1 m/S 753 mmHg 60%
    22:00 +27°C° 0 mm 1 m/S 754 mmHg 62%
    23:00 +27°C° 0 mm 1 m/S 754 mmHg 64%

    22 August, Mittwoch

    Zeit Temperatur Niederschläge Wind Luftdruck Luftfeuchtigkeit
    00:00 +26°C° 0 mm 1 m/S 754 mmHg 65%
    01:00 +26°C° 0 mm 1 m/S 754 mmHg 66%
    02:00 +26°C° 0 mm 1 m/S 754 mmHg 67%
    03:00 +26°C° 0 mm 1 m/S 754 mmHg 68%
    04:00 +25°C° 0 mm 1 m/S 754 mmHg 68%
    05:00 +25°C° 0 mm 1 m/S 754 mmHg 69%
    06:00 +26°C° 0 mm 1 m/S 754 mmHg 68%
    07:00 +27°C° 0 mm 1 m/S 755 mmHg 67%
    08:00 +28°C° 0 mm 1 m/S 755 mmHg 66%
    09:00 +29°C° 0 mm 1 m/S 755 mmHg 61%
    10:00 +30°C° 0 mm 1 m/S 755 mmHg 57%
    11:00 +31°C° 0 mm 1 m/S 755 mmHg 53%
    12:00 +32°C° 0 mm 1 m/S 754 mmHg 50%
    13:00 +33°C° 0 mm 1 m/S 754 mmHg 48%
    14:00 +33°C° 0 mm 1 m/S 753 mmHg 45%
    15:00 +33°C° 0 mm 1 m/S 753 mmHg 46%
    16:00 +33°C° 0 mm 1 m/S 753 mmHg 48%
    17:00 +33°C° 0 mm 1 m/S 753 mmHg 50%
    18:00 +31°C° 0 mm 1 m/S 753 mmHg 53%
    19:00 +29°C° 0 mm 2 m/S 753 mmHg 56%
    20:00 +28°C° 0 mm 2 m/S 754 mmHg 58%
    21:00 +27°C° 0 mm 2 m/S 754 mmHg 59%
    22:00 +26°C° 0 mm 2 m/S 754 mmHg 60%
    23:00 +26°C° 0 mm 1 m/S 754 mmHg 60%

    23 August, Donnerstag

    Zeit Temperatur Niederschläge Wind Luftdruck Luftfeuchtigkeit
    00:00 +26°C° 0 mm 2 m/S 754 mmHg 61%
    01:00 +25°C° 0 mm 2 m/S 753 mmHg 62%
    02:00 +25°C° 0 mm 2 m/S 753 mmHg 63%
    03:00 +25°C° 0 mm 2 m/S 753 mmHg 65%
    04:00 +24°C° 0 mm 2 m/S 753 mmHg 67%
    05:00 +24°C° 0 mm 2 m/S 752 mmHg 70%
    06:00 +25°C° 0 mm 2 m/S 752 mmHg 69%
    07:00 +26°C° 0 mm 2 m/S 752 mmHg 69%
    08:00 +27°C° 0 mm 2 m/S 752 mmHg 69%
    09:00 +29°C° 0 mm 2 m/S 752 mmHg 63%
    10:00 +31°C° 0 mm 2 m/S 752 mmHg 57%
    11:00 +32°C° 0 mm 2 m/S 752 mmHg 51%
    12:00 +33°C° 0 mm 1 m/S 751 mmHg 48%
    13:00 +34°C° 0 mm 1 m/S 750 mmHg 44%
    14:00 +35°C° 0 mm 1 m/S 750 mmHg 41%
    15:00 +35°C° 0 mm 1 m/S 749 mmHg 43%
    16:00 +35°C° 0 mm 1 m/S 749 mmHg 44%
    17:00 +34°C° 0 mm 1 m/S 749 mmHg 46%
    18:00 +33°C° 0 mm 1 m/S 749 mmHg 49%
    19:00 +31°C° 0 mm 1 m/S 749 mmHg 52%
    20:00 +29°C° 0 mm 1 m/S 749 mmHg 55%
    21:00 +29°C° 0,2 mm 1 m/S 750 mmHg 57%
    22:00 +28°C° 0,2 mm 1 m/S 750 mmHg 58%
    23:00 +28°C° 0,2 mm 2 m/S 750 mmHg 59%

    24 August, Freitag

    Zeit Temperatur Niederschläge Wind Luftdruck Luftfeuchtigkeit
    00:00 +27°C° 0,3 mm 2 m/S 750 mmHg 63%
    01:00 +27°C° 0,3 mm 2 m/S 750 mmHg 66%
    02:00 +26°C° 0,3 mm 2 m/S 750 mmHg 69%
    03:00 +25°C° 1 mm 2 m/S 751 mmHg 72%
    04:00 +25°C° 1 mm 2 m/S 751 mmHg 75%
    05:00 +24°C° 1 mm 2 m/S 751 mmHg 78%
    06:00 +25°C° 0,3 mm 2 m/S 752 mmHg 75%
    07:00 +26°C° 0,3 mm 2 m/S 752 mmHg 71%
    08:00 +27°C° 0,3 mm 2 m/S 752 mmHg 67%
    09:00 +29°C° 0 mm 2 m/S 752 mmHg 63%
    10:00 +30°C° 0 mm 2 m/S 752 mmHg 58%
    11:00 +31°C° 0 mm 2 m/S 752 mmHg 53%
    12:00 +32°C° 0 mm 2 m/S 752 mmHg 51%
    13:00 +34°C° 0 mm 2 m/S 751 mmHg 49%
    14:00 +34°C° 0 mm 3 m/S 751 mmHg 47%
    15:00 +34°C° 0 mm 3 m/S 751 mmHg 50%
    16:00 +33°C° 0 mm 3 m/S 751 mmHg 53%
    17:00 +33°C° 0 mm 3 m/S 750 mmHg 56%
    18:00 +31°C° 0 mm 3 m/S 751 mmHg 58%
    19:00 +29°C° 0 mm 3 m/S 751 mmHg 60%
    20:00 +28°C° 0 mm 3 m/S 751 mmHg 61%
    21:00 +27°C° 0 mm 3 m/S 752 mmHg 62%
    22:00 +27°C° 0 mm 3 m/S 752 mmHg 62%
    23:00 +27°C° 0 mm 3 m/S 752 mmHg 62%
    Mehr zeigen